{"data":{"norad_id":58218,"epoch":"2026-09-20T11:35:34.232640Z","epoch_age_seconds":145144,"freshness":"FRESH","line1":"1 58218U 23170N   26263.48303510  .00000676  00000+0  34121-4 0  9993","line2":"2 58218  43.0107 173.8566 0002671 247.1260 112.9310 15.27586289160091","mean_motion":15.27586289,"eccentricity":0.0002671,"inclination_deg":43.0107,"raan_deg":173.8566,"arg_perigee_deg":247.126,"mean_anomaly_deg":112.931,"bstar":3.4121e-5,"rev_number":16009,"period_min":94.266360621937,"perigee_km":481.19764679944,"apogee_km":484.86288235217,"semimajor_km":6861.1672645758,"source":"CELESTRAK","updated_at":"2026-09-21T09:00:33.833473Z"}}